Weather Roundup
Issued by NWS

Home | Current Version | Previous Version | Graphics & Text | Print | Product List | Glossary Off
Versions: 1 2 3 4 5 6 7 8 9 10 11 12 13 14 15 16 17 18 19 20 21 22 23 24 25 26 27 28 29 30 31 32 33 34 35 36 37 38 39 40 41 42 43 44 45 46 47 48 49 50

000
NZUS93 KARX 302059
HRRWXR

CURRENT HOURLY OBSERVATIONS ACROSS
MUCH OF THE UPPER MISSISSIPPI VALLEY
NATIONAL WEATHER SERVICE LA CROSSE WI
400 PM CDT TUE SEP 30 2014


...SOUTHEAST MINNESOTA...


CITY           SKY/WX    TMP DP  RH WIND       PRES   REMARKS
ROCHESTER      CLOUDY    56  47  71 E13       29.96F
ROCHESTER/MAYO FAIR      56  44  63 E6        29.95F
WINONA         CLOUDY    54  45  71 SE10      29.99F
AUSTIN         CLOUDY    61  48  63 SE10G16   29.92F
ALBERT LEA     PTSUNNY   63  52  67 SE16      29.90F
DODGE CENTER   CLOUDY    57  46  67 SE15      29.93F
PRESTON        CLOUDY    55  45  68 E12       29.96F
OWATONNA       CLOUDY    59  46  63 E14G20    29.90F
FARIBAULT      CLOUDY    61  46  59 E10       29.91F
$$

...ELSEWHERE IN MINNESOTA...


CITY           SKY/WX    TMP DP  RH WIND       PRES   REMARKS
MINNEAPOLIS    CLOUDY    58  44  60 E16       29.91F
INTNL FALLS    SUNNY     57  42  57 E14       29.93F
DULUTH         PTSUNNY   47  41  80 E13       30.00F
RED WING       PTSUNNY   57  43  58 SE9       29.95F
REDWOOD FALLS  PTSUNNY   60  49  66 SE20G30   29.82F
MANKATO        PTSUNNY   61  46  59 SE17      29.89S
WORTHINGTON    CLOUDY    59  55  88 SE10G17   29.85R
FAIRMONT       PTSUNNY   64  52  63 SE15      29.86F
$$

...SOUTHWEST WISCONSIN...


CITY           SKY/WX    TMP DP  RH WIND       PRES   REMARKS
LA CROSSE      CLOUDY    57  44  62 E7        29.99F
PRAIRIE DU CHI CLOUDY    56  44  63 E9        29.99F
BOSCOBEL       PTSUNNY   54  42  64 E9        30.01F
LONE ROCK      NOT AVBL
PLATTEVILLE    PTSUNNY   54  44  69 E13       30.01F
FORT MC COY    PTSUNNY   51  41  68 E8        30.03F
VIROQUA        FAIR      52  43  70 E9        30.01F
WIS DELLS      CLOUDY    48  40  74 E5        30.05S
$$

...ELSEWHERE IN WISCONSIN...


CITY           SKY/WX    TMP DP  RH WIND       PRES   REMARKS
MILWAUKEE      CLOUDY    52  45  77 N14G21    30.04F
MADISON        CLOUDY    50  42  74 E9        30.03F
GREEN BAY      CLOUDY    49  43  80 NE8       30.07F
EAU CLAIRE     NOT AVBL
BLACK RVR FLS  FAIR      54  41  62 SE5       30.01F
MEDFORD        SUNNY     57  43  60 SE6       30.01F
WAUSAU         SUNNY     55  42  61 E9        30.01F
WIS RAPIDS     SUNNY     54  41  61 E10       30.04F
MARSHFIELD     SUNNY     55  43  63 SE7       30.01F
RICE LAKE      MOSUNNY   57  42  58 SE9       30.00F
$$

...NORTHEAST IOWA...


CITY           SKY/WX    TMP DP  RH WIND       PRES   REMARKS
DECORAH        CLOUDY    57  46  67 E10G16    29.96F
MASON CITY     PTSUNNY   63  53  70 SE15      29.92F
CHARLES CITY   PTSUNNY   63  50  63 SE15      29.94S
OELWEIN        PTSUNNY   63  48  59 SE12      29.96F
$$

...ELSEWHERE IN IOWA...


CITY           SKY/WX    TMP DP  RH WIND       PRES   REMARKS
DES MOINES     PTSUNNY   69  59  70 E13       29.86F
IOWA CITY      MOSUNNY   68  54  60 E9        29.95F
FORT DODGE     MOSUNNY   66  55  68 SE9       29.86F
$$

...NORTHERN ILLINOIS...


CITY           SKY/WX    TMP DP  RH WIND       PRES   REMARKS
CHICAGO-OHARE  CLOUDY    58  46  64 NE15      30.01F
CHICAGO-MIDWAY PTSUNNY   58  48  69 N13       30.00F
MOLINE         NOT AVBL
ROCKFORD       NOT AVBL
PEORIA         PTSUNNY   70  53  54 NE7       29.95F
$$

NOTE: "FAIR" INDICATES FEW OR NO CLOUDS BELOW 12,000 FEET WITH NO
SIGNIFICANT WEATHER AND/OR OBSTRUCTIONS TO VISIBILITY. WIND
SPEEDS ARE IN MILES-PER-HOUR.



USA.gov is the U.S. government's official web portal to all federal, state and local government web resources and services.